When you browse on this site, cookies collect data to enhance your experience and personalize the content and advertising you see.
Visit our Privacy Policy to learn more. By continuing to use the site, you agree to this use of cookies and data.

Hourly Weather Kerewan

Today, 18 September, Friday

Time Temperature Precipitation Wind Pressure Humidity
00:00 +27°C° 0 mm 3 mps 757 mmHg 87%
01:00 +27°C° 0 mm 3 mps 756 mmHg 88%
02:00 +27°C° 0 mm 3 mps 756 mmHg 89%
03:00 +27°C° 0 mm 3 mps 756 mmHg 90%
04:00 +27°C° 0 mm 3 mps 756 mmHg 90%
05:00 +27°C° 0 mm 3 mps 756 mmHg 91%
06:00 +27°C° 0 mm 3 mps 757 mmHg 88%
07:00 +28°C° 0 mm 3 mps 757 mmHg 85%
08:00 +29°C° 0 mm 3 mps 758 mmHg 82%
09:00 +30°C° 0 mm 3 mps 758 mmHg 78%
10:00 +31°C° 0 mm 3 mps 758 mmHg 74%
11:00 +33°C° 0 mm 3 mps 758 mmHg 70%
12:00 +33°C° 0 mm 3 mps 757 mmHg 69%
13:00 +33°C° 0 mm 4 mps 756 mmHg 68%
14:00 +34°C° 0 mm 5 mps 756 mmHg 67%
15:00 +33°C° 0 mm 4 mps 756 mmHg 71%
16:00 +32°C° 0 mm 4 mps 756 mmHg 75%
17:00 +30°C° 0 mm 4 mps 756 mmHg 80%
18:00 +29°C° 0 mm 3 mps 756 mmHg 81%
19:00 +29°C° 0 mm 3 mps 757 mmHg 83%
20:00 +28°C° 0 mm 3 mps 757 mmHg 85%
21:00 +28°C° 0 mm 2 mps 758 mmHg 86%
22:00 +28°C° 0 mm 2 mps 758 mmHg 87%
23:00 +28°C° 0 mm 1 mps 758 mmHg 88%

Tomorrow, 19 September, Saturday

Time Temperature Precipitation Wind Pressure Humidity
00:00 +28°C° 0 mm 1 mps 758 mmHg 89%
01:00 +27°C° 0 mm 1 mps 757 mmHg 90%
02:00 +27°C° 0 mm 1 mps 757 mmHg 90%
03:00 +27°C° 1.2 mm 1 mps 757 mmHg 91%
04:00 +27°C° 1.2 mm 1 mps 757 mmHg 92%
05:00 +27°C° 1.2 mm 1 mps 757 mmHg 93%
06:00 +27°C° 1.1 mm 1 mps 757 mmHg 91%
07:00 +27°C° 1.1 mm 1 mps 758 mmHg 90%
08:00 +28°C° 1.1 mm 2 mps 759 mmHg 89%
09:00 +28°C° 0.5 mm 2 mps 759 mmHg 85%
10:00 +29°C° 0.5 mm 2 mps 759 mmHg 81%
11:00 +30°C° 0.5 mm 3 mps 759 mmHg 77%
12:00 +30°C° 0.1 mm 2 mps 758 mmHg 73%
13:00 +31°C° 0.1 mm 2 mps 758 mmHg 69%
14:00 +32°C° 0.1 mm 2 mps 757 mmHg 65%
15:00 +31°C° 0.4 mm 2 mps 757 mmHg 69%
16:00 +31°C° 0.4 mm 2 mps 757 mmHg 72%
17:00 +30°C° 0.4 mm 2 mps 756 mmHg 75%
18:00 +29°C° 0.6 mm 2 mps 757 mmHg 79%
19:00 +28°C° 0.6 mm 2 mps 758 mmHg 82%
20:00 +27°C° 0.6 mm 2 mps 758 mmHg 86%
21:00 +27°C° 0.1 mm 2 mps 758 mmHg 87%
22:00 +27°C° 0.1 mm 2 mps 759 mmHg 88%
23:00 +27°C° 0.1 mm 2 mps 759 mmHg 89%

Day after tomorrow, 20 September, Sunday

Time Temperature Precipitation Wind Pressure Humidity
00:00 +26°C° 0.1 mm 2 mps 758 mmHg 90%
01:00 +26°C° 0.1 mm 2 mps 758 mmHg 91%
02:00 +26°C° 0.1 mm 2 mps 758 mmHg 92%
03:00 +26°C° 0 mm 2 mps 758 mmHg 93%
04:00 +26°C° 0 mm 2 mps 758 mmHg 93%
05:00 +26°C° 0 mm 2 mps 758 mmHg 93%
06:00 +26°C° 0 mm 2 mps 758 mmHg 91%
07:00 +27°C° 0 mm 2 mps 759 mmHg 88%
08:00 +28°C° 0 mm 3 mps 759 mmHg 85%
09:00 +29°C° 0 mm 3 mps 759 mmHg 80%
10:00 +30°C° 0 mm 3 mps 759 mmHg 74%
11:00 +33°C° 0 mm 3 mps 759 mmHg 69%
12:00 +33°C° 0.3 mm 3 mps 758 mmHg 68%
13:00 +32°C° 0.3 mm 2 mps 758 mmHg 67%
14:00 +34°C° 0.3 mm 2 mps 757 mmHg 66%
15:00 +33°C° 0.6 mm 3 mps 757 mmHg 71%
16:00 +31°C° 0.6 mm 3 mps 757 mmHg 75%
17:00 +30°C° 0.6 mm 3 mps 757 mmHg 80%
18:00 +29°C° 0 mm 3 mps 757 mmHg 83%
19:00 +28°C° 0 mm 3 mps 758 mmHg 85%
20:00 +27°C° 0 mm 3 mps 759 mmHg 88%
21:00 +27°C° 0.1 mm 2 mps 759 mmHg 89%
22:00 +27°C° 0.1 mm 2 mps 759 mmHg 90%
23:00 +27°C° 0.1 mm 1 mps 759 mmHg 91%

21 September, Monday

Time Temperature Precipitation Wind Pressure Humidity
00:00 +26°C° 0 mm 1 mps 759 mmHg 92%
01:00 +26°C° 0 mm 1 mps 759 mmHg 92%
02:00 +24°C° 0 mm 0 mps 758 mmHg 92%
03:00 +24°C° 0 mm 0 mps 758 mmHg 93%
04:00 +24°C° 0 mm 0 mps 758 mmHg 93%
05:00 +24°C° 0 mm 0 mps 759 mmHg 93%
06:00 +25°C° 0 mm 0 mps 759 mmHg 89%
07:00 +26°C° 0 mm 0 mps 760 mmHg 86%
08:00 +27°C° 0 mm 0 mps 760 mmHg 82%
09:00 +27°C° 0.1 mm 0 mps 760 mmHg 79%
10:00 +30°C° 0.1 mm 1 mps 760 mmHg 77%
11:00 +31°C° 0.1 mm 1 mps 760 mmHg 74%
12:00 +31°C° 0 mm 1 mps 759 mmHg 69%
13:00 +32°C° 0 mm 2 mps 759 mmHg 65%
14:00 +34°C° 0 mm 2 mps 758 mmHg 60%
15:00 +34°C° 0.3 mm 2 mps 758 mmHg 64%
16:00 +32°C° 0.3 mm 2 mps 758 mmHg 69%
17:00 +31°C° 0.3 mm 3 mps 758 mmHg 73%
18:00 +30°C° 0.9 mm 3 mps 758 mmHg 78%
19:00 +28°C° 0.9 mm 3 mps 759 mmHg 83%
20:00 +27°C° 0.9 mm 3 mps 759 mmHg 89%
21:00 +27°C° 0 mm 2 mps 759 mmHg 88%
22:00 +27°C° 0 mm 2 mps 759 mmHg 88%
23:00 +26°C° 0 mm 1 mps 759 mmHg 88%

22 September, Tuesday

Time Temperature Precipitation Wind Pressure Humidity
00:00 +26°C° 0 mm 1 mps 759 mmHg 87%
01:00 +26°C° 0 mm 2 mps 758 mmHg 86%
02:00 +26°C° 0 mm 2 mps 757 mmHg 85%
03:00 +26°C° 0 mm 1 mps 758 mmHg 84%
04:00 +26°C° 0 mm 1 mps 758 mmHg 84%
05:00 +26°C° 0 mm 1 mps 758 mmHg 84%
06:00 +26°C° 0 mm 1 mps 758 mmHg 81%
07:00 +27°C° 0 mm 1 mps 759 mmHg 78%
08:00 +28°C° 0 mm 1 mps 759 mmHg 75%
09:00 +30°C° 0 mm 1 mps 759 mmHg 70%
10:00 +31°C° 0 mm 1 mps 759 mmHg 65%
11:00 +33°C° 0 mm 1 mps 759 mmHg 60%
12:00 +34°C° 0 mm 2 mps 758 mmHg 59%
13:00 +35°C° 0 mm 2 mps 758 mmHg 58%
14:00 +36°C° 0 mm 2 mps 757 mmHg 56%
15:00 +35°C° 0 mm 3 mps 757 mmHg 63%
16:00 +34°C° 0 mm 3 mps 757 mmHg 69%
17:00 +33°C° 0 mm 4 mps 756 mmHg 75%
18:00 +32°C° 0 mm 4 mps 757 mmHg 78%
19:00 +30°C° 0 mm 4 mps 758 mmHg 81%
20:00 +29°C° 0 mm 4 mps 758 mmHg 85%
21:00 +29°C° 0 mm 4 mps 758 mmHg 86%
22:00 +28°C° 0 mm 3 mps 758 mmHg 87%
23:00 +28°C° 0 mm 3 mps 758 mmHg 88%

23 September, Wednesday

Time Temperature Precipitation Wind Pressure Humidity
00:00 +28°C° 0 mm 3 mps 758 mmHg 90%
01:00 +27°C° 0 mm 3 mps 757 mmHg 92%
02:00 +27°C° 0 mm 2 mps 757 mmHg 94%
03:00 +27°C° 0 mm 2 mps 757 mmHg 95%
04:00 +27°C° 0 mm 2 mps 757 mmHg 95%
05:00 +27°C° 0 mm 2 mps 757 mmHg 96%
06:00 +28°C° 0 mm 3 mps 757 mmHg 92%
07:00 +28°C° 0 mm 3 mps 757 mmHg 87%
08:00 +29°C° 0 mm 3 mps 757 mmHg 83%
09:00 +32°C° 0 mm 4 mps 757 mmHg 77%
10:00 +33°C° 0 mm 4 mps 757 mmHg 72%
11:00 +34°C° 0 mm 4 mps 757 mmHg 66%
12:00 +34°C° 0 mm 4 mps 757 mmHg 67%
13:00 +34°C° 0 mm 5 mps 756 mmHg 68%
14:00 +34°C° 0 mm 5 mps 755 mmHg 70%
15:00 +33°C° 0 mm 5 mps 755 mmHg 73%
16:00 +32°C° 0 mm 5 mps 755 mmHg 77%
17:00 +30°C° 0 mm 5 mps 755 mmHg 80%
18:00 +29°C° 0 mm 4 mps 755 mmHg 83%
19:00 +28°C° 0 mm 4 mps 756 mmHg 86%
20:00 +27°C° 0 mm 3 mps 756 mmHg 90%
21:00 +27°C° 0 mm 3 mps 756 mmHg 90%
22:00 +27°C° 0 mm 3 mps 757 mmHg 91%
23:00 +27°C° 0 mm 3 mps 757 mmHg 92%
Show more